GW5149 Weather Reports


time (UTC)temp
F
wind
direction
speed
knots
gust
knots
rain 1hr
in
rain 24hr
in
rain mn
in
humidity
%
barometer
mb
20260503010059 52 0 0.0 1.7 0.02 0.04 0.04 88 1009.5
20260503005017 52 338 0.0 1.7 0.01 0.02 0.02 88 1009.4
20260503004135 52 293 0.0 1.7 0.01 0.02 0.02 87 1009.5
20260503003113 52 45 0.0 3.5 0.02 0.02 0.02 87 1009.5
20260503002109 53 0.0 1.7 0.01 0.01 0.01 86 1009.5
20260503001127 53 0.0 1.7 0.01 0.01 0.01 85 1009.7
20260503000124 53 315 0.0 1.7 0.01 0.01 0.01 84 1009.8
20260502235143 53 0.0 1.7 0.01 0.01 0.01 83 1009.8
20260502234059 53 0.0 0.0 0.01 0.01 0.01 83 1009.8
20260502233057 53 0.0 1.7 0.00 0.00 0.00 82 1009.9
20260502232055 54 23 0.0 1.7 0.00 0.00 0.00 81 1010.0
20260502231051 54 0.0 1.7 0.00 0.00 0.00 81 1009.9
20260502230048 54 0.0 0.0 0.00 0.00 0.00 81 1009.8
20260502225107 54 0.0 0.0 0.00 0.00 0.00 80 1009.9
20260502224043 54 0.0 1.7 0.00 0.00 0.00 80 1009.9
20260502223051 54 0.0 1.7 0.00 0.00 0.00 79 1010.0
20260502222039 54 338 0.0 1.7 0.00 0.00 0.00 78 1010.0
20260502221037 54 0.0 1.7 0.00 0.00 0.00 79 1010.1
20260502220054 54 0 0.0 1.7 0.00 0.00 0.00 79 1010.1
20260502215031 54 338 0.0 1.7 0.00 0.00 0.00 77 1010.2
20260502214028 54 338 0.0 1.7 0.00 0.00 0.00 78 1010.4
20260502213026 54 0.0 1.7 0.00 0.00 0.00 80 1010.4
20260502212023 54 0.0 1.7 0.00 0.00 0.00 83 1010.4
20260502211021 54 338 0.0 1.7 0.00 0.00 0.00 84 1010.5
20260502210038 55 338 0.0 1.7 0.00 0.00 0.00 84 1010.7
20260502205016 55 0.0 1.7 0.00 0.00 0.00 83 1010.6
20260502204133 55 338 0.0 1.7 0.00 0.00 0.00 83 1010.7
20260502203111 55 0.0 0.0 0.00 0.00 0.00 83 1010.7
20260502202109 55 0 0.0 1.7 0.00 0.00 0.00 82 1010.7
20260502201106 55 0.0 0.0 0.00 0.00 0.00 82 1010.8
20260502200104 56 0.0 0.0 0.00 0.00 0.00 81 1010.7
20260502195140 55 0 0.9 1.7 0.00 0.00 0.00 79 1010.5
20260502194059 55 0 0.0 1.7 0.00 0.00 0.00 78 1010.5
20260502193055 56 0 0.0 1.7 0.00 0.00 0.00 79 1010.6
20260502192054 56 338 0.0 1.7 0.00 0.00 0.00 78 1010.6
20260502191130 57 338 0.0 1.7 0.00 0.00 0.00 76 1010.7
20260502190108 57 356 0.9 1.7 0.00 0.00 0.00 73 1010.7
20260502185105 57 0.0 0.0 0.00 0.00 0.00 72 1010.9
20260502184042 57 0.0 0.0 0.00 0.00 0.00 71 1011.0
20260502183040 57 0.0 0.0 0.00 0.00 0.00 71 1011.1
20260502182037 57 90 0.0 1.7 0.00 0.00 0.00 71 1011.0
20260502181035 58 0.0 1.7 0.00 0.00 0.00 69 1011.1
20260502164111 59 0 0.0 1.7 0.00 0.09 0.00 63 1011.4
20260502163109 60 345 0.0 1.7 0.00 0.09 0.00 62 1011.4
20260502162128 60 344 0.9 3.5 0.00 0.09 0.00 62 1011.3
20260502161104 59 0 0.0 1.7 0.00 0.09 0.00 64 1011.5
20260502152052 60 248 0.0 1.7 0.00 0.11 0.00 64 1012.4
20260502151108 63 68 0.0 1.7 0.00 0.11 0.00 60 1012.6
20260502123147 58 0.0 1.7 0.00 0.11 0.00 73 1013.1
20260502122105 59 90 0.0 1.7 0.00 0.11 0.00 72 1012.8
20260502121102 59 248 0.0 1.7 0.00 0.11 0.00 73 1013.0
20260502115057 60 270 0.0 1.7 0.00 0.11 0.00 72 1012.5
20260502114056 60 236 0.0 1.7 0.00 0.11 0.00 72 1012.6
20260502113053 59 270 0.0 1.7 0.00 0.11 0.00 73 1013.3
20260502112049 58 0.0 3.5 0.00 0.11 0.00 72 1013.5
20260502111048 58 270 0.0 1.7 0.00 0.11 0.00 74 1014.1
20260502110044 58 293 0.0 1.7 0.00 0.11 0.00 77 1014.1
20260502105041 56 293 0.0 1.7 0.00 0.11 0.00 79 1014.4
20260502104040 55 0.0 1.7 0.00 0.11 0.00 81 1014.5
20260502103037 55 0.0 1.7 0.00 0.11 0.00 80 1014.4
20260502102034 57 293 0.0 1.7 0.00 0.11 0.00 78 1014.3
20260502101031 57 236 0.0 1.7 0.00 0.11 0.00 78 1014.2
20260502091017 54 0.0 1.7 0.00 0.11 0.00 82 1014.6
20260502090155 54 0.0 1.7 0.00 0.11 0.00 83 1014.7
20260502071047 52 0.0 1.7 0.00 0.11 0.00 91 1014.5
20260502070042 52 0.0 1.7 0.00 0.11 0.00 91 1014.4
20260502065040 51 0.0 1.7 0.00 0.11 0.00 92 1014.4
20260502064037 51 0.0 1.7 0.00 0.11 0.00 92 1014.5
20260502063035 51 0.0 0.0 0.00 0.11 0.00 92 1014.4
20260502062052 51 0.0 1.7 0.00 0.11 0.00 93 1014.3
20260502061029 51 0.0 1.7 0.00 0.11 0.00 93 1014.3
20260502060027 51 0.0 0.0 0.00 0.11 0.00 93 1014.2
20260502055024 51 0.0 0.0 0.00 0.11 0.00 93 1014.4
20260502054022 51 0.0 1.7 0.00 0.11 0.00 93 1014.3
20260502053019 51 0.0 1.7 0.00 0.11 0.00 93 1014.3
20260502052017 50 0.0 1.7 0.00 0.11 0.00 93 1014.3
20260502051114 50 270 0.0 1.7 0.00 0.11 0.00 94 1014.3
20260502050113 50 259 0.0 3.5 0.00 0.11 0.00 94 1014.5
20260502045109 51 0.0 1.7 0.00 0.11 0.00 94 1014.5
20260502044106 50 294 0.0 1.7 0.00 0.11 0.00 94 1014.3
20260502043104 50 293 0.0 3.5 0.00 0.11 0.00 94 1014.4
20260502042100 50 0.0 1.7 0.00 0.11 0.00 94 1014.3
20260502041118 51 0.0 1.7 0.00 0.11 0.00 94 1014.5
20260502040117 51 0.0 1.7 0.00 0.11 0.00 94 1014.4
20260502035113 51 0.0 1.7 0.00 0.11 0.00 95 1014.6
20260502034050 51 0.0 1.7 0.00 0.11 0.00 95 1014.6
20260502033048 51 0.0 1.7 0.00 0.11 0.00 95 1014.8
20260502032045 51 0.0 1.7 0.00 0.11 0.00 95 1014.7
20260502031043 51 293 0.0 1.7 0.00 0.11 0.00 95 1014.6
20260502030100 51 0.0 1.7 0.00 0.11 0.00 95 1014.9
20260502025058 51 0.0 1.7 0.00 0.11 0.00 95 1014.8
20260502024035 51 0.0 1.7 0.00 0.11 0.00 95 1014.9
20260502023033 51 0.0 1.7 0.00 0.11 0.00 95 1015.1
20260502022110 51 0.0 1.7 0.00 0.11 0.00 95 1015.1
20260502021028 50 0.0 0.0 0.00 0.11 0.00 95 1015.3
20260502020025 50 0.0 0.0 0.00 0.11 0.00 95 1015.2
20260502015023 50 0.0 0.0 0.00 0.11 0.00 95 1015.4
20260502014020 50 0.0 0.0 0.00 0.11 0.00 95 1015.5
20260502013017 50 0.0 0.0 0.00 0.11 0.00 95 1015.8
20260502012115 50 0.0 0.0 0.00 0.11 0.00 95 1015.8
20260502011112 51 0.0 1.7 0.00 0.11 0.00 95 1015.8